Weather in Luzhayki

Russia / Nizhny Novgorod Oblast'     57°39′51″N   46°32′16″E
temp.,
°C
wind,
m/s
gust,
m/s
humid.,
%
clouds,
%
prec.,
mm/h
press.,
hPa
HPBL,
m
13 april, tue
tue1300:00+4se4995100 0.0 1037362
03:00+3se399899 0.0 1036226
06:00+3se39100100 0.0 1035254
09:00+5sse38100100 0.1 1034195
12:00+7sse39100100 0.0 1032274
15:00+9s4795100 0.0 1031340
18:00+10sse3898100 0.0 1029237
21:00+8sse3119940 0.0 1029200
14 april, wed
wed1400:00+6s412886 0.0 1028186
03:00+5s4108770 0.0 1028133
06:00+5s3784100 0.0 1028118
09:00+11s476668 0.0 1027248
12:00+16s575348 0.0 1025589
15:00+17s575032 0.0 1024936
18:00+13s37656 0.0 1023138
21:00+9s36805 0.0 102290
15 april, thu
thu1500:00+8ssw36865 0.0 102180
03:00+7ssw35915 0.0 102180
06:00+8ssw239213 0.0 102057
09:00+13sw237014 0.0 1019333
12:00+17wsw23535 0.0 1018956
15:00+17nw3345100 0.0 10181850
18:00+8nne71180100 0.0 1021487
21:00+5ne61383100 0.0 1024556
16 april, fri
fri1600:00+5ne6127665 0.0 1025640
03:00+5ne51175100 0.0 1025630
06:00+3ne51265100 0.0 1027577
09:00+6ene694822 0.0 1028766
12:00+9ene56370 0.0 10281153
15:00+10ne45355 0.0 10271287
18:00+8ne36475 0.0 1028217
21:00+4ene34625 0.0 102967
17 april, sat
sat1700:00+2ne34685 0.0 103059
03:00+1ne34725 0.0 103061
06:00+1nne24725 0.0 1031101
09:00+7nne34501 0.0 1030647
12:00+10n45435 0.0 10301511
15:00+11nnw464169 0.0 10291971
18:00+9n485136 0.0 1029401
21:00+4nne22705 0.0 103020